TimeCST,TemperatureF,Dew PointF,Humidity,Sea Level PressureIn,VisibilityMPH,Wind Direction,Wind SpeedMPH,Gust SpeedMPH,PrecipitationIn,Events,Conditions,WindDirDegrees,DateUTC
12:15 AM,28.4,23.0,80,29.88,10.0,North,6.9,-,N/A,,Clear,350,2013-02-27 06:15:00
12:35 AM,28.4,24.8,86,29.88,10.0,North,5.8,-,N/A,,Clear,360,2013-02-27 06:35:00
12:56 AM,28.4,24.8,86,29.88,10.0,North,8.1,-,N/A,,Clear,360,2013-02-27 06:56:00
1:15 AM,28.4,24.8,86,29.88,10.0,North,6.9,-,N/A,,Clear,360,2013-02-27 07:15:00
1:36 AM,26.6,24.8,93,29.88,10.0,North,6.9,-,N/A,,Clear,10,2013-02-27 07:36:00
1:56 AM,28.4,24.8,86,29.88,10.0,North,6.9,-,N/A,,Scattered Clouds,360,2013-02-27 07:56:00
2:16 AM,28.4,24.8,86,29.88,10.0,North,4.6,-,N/A,,Overcast,10,2013-02-27 08:16:00
2:35 AM,28.4,24.8,86,29.88,10.0,North,6.9,-,N/A,,Overcast,10,2013-02-27 08:35:00
2:56 AM,28.4,24.8,86,29.88,10.0,North,9.2,-,N/A,,Overcast,360,2013-02-27 08:56:00
3:15 AM,28.4,24.8,86,29.88,10.0,North,4.6,-,N/A,,Overcast,360,2013-02-27 09:15:00
3:35 AM,28.4,24.8,86,29.87,10.0,North,6.9,-,N/A,,Overcast,350,2013-02-27 09:35:00
3:56 AM,28.4,24.8,86,29.87,10.0,NNW,4.6,-,N/A,,Overcast,340,2013-02-27 09:56:00
4:13 AM,26.6,24.8,93,29.87,10.0,North,6.9,-,N/A,,Overcast,350,2013-02-27 10:13:00
4:32 AM,26.6,24.8,93,29.87,10.0,NNW,5.8,-,N/A,,Overcast,340,2013-02-27 10:32:00
4:56 AM,26.6,24.8,93,29.87,10.0,North,5.8,-,N/A,,Overcast,350,2013-02-27 10:56:00
5:15 AM,28.4,24.8,86,29.87,10.0,NNW,5.8,-,N/A,,Overcast,340,2013-02-27 11:15:00
5:34 AM,26.6,24.8,93,29.87,10.0,NNW,9.2,-,N/A,,Overcast,340,2013-02-27 11:34:00
5:56 AM,26.6,24.8,93,29.88,10.0,NNW,9.2,-,N/A,,Overcast,340,2013-02-27 11:56:00
6:15 AM,28.4,24.8,86,29.88,10.0,North,9.2,-,N/A,,Overcast,350,2013-02-27 12:15:00
6:55 AM,26.6,23.0,86,29.88,10.0,NNW,6.9,-,N/A,,Scattered Clouds,340,2013-02-27 12:55:00
7:16 AM,26.6,23.0,86,29.89,10.0,NNW,8.1,-,N/A,,Scattered Clouds,340,2013-02-27 13:16:00
7:35 AM,26.6,23.0,86,29.89,10.0,NNW,8.1,-,N/A,,Mostly Cloudy,340,2013-02-27 13:35:00
7:56 AM,26.6,23.0,86,29.90,10.0,NNW,9.2,-,N/A,,Overcast,340,2013-02-27 13:56:00
8:16 AM,26.6,23.0,86,29.92,-9999.0,NNW,5.8,-,N/A,,Unknown,340,2013-02-27 14:16:00
8:36 AM,26.6,23.0,86,29.91,10.0,NNW,6.9,-,N/A,,Mostly Cloudy,340,2013-02-27 14:36:00
9:16 AM,28.4,23.0,80,29.90,10.0,North,6.9,-,N/A,,Clear,350,2013-02-27 15:16:00
9:36 AM,28.4,24.8,86,29.90,10.0,North,11.5,-,N/A,,Clear,350,2013-02-27 15:36:00
9:55 AM,30.2,24.8,80,29.90,10.0,NNW,10.4,-,N/A,,Clear,340,2013-02-27 15:55:00
10:16 AM,30.2,24.8,80,29.89,10.0,NNW,11.5,18.4,N/A,,Clear,340,2013-02-27 16:16:00
10:36 AM,32.0,26.6,80,29.88,10.0,NNW,8.1,17.3,N/A,,Clear,340,2013-02-27 16:36:00
10:56 AM,33.8,26.6,75,29.88,10.0,NNW,15.0,19.6,N/A,,Clear,340,2013-02-27 16:56:00
11:15 AM,33.8,26.6,75,29.88,10.0,NNW,10.4,16.1,N/A,,Clear,330,2013-02-27 17:15:00
11:36 AM,35.6,28.4,75,29.88,10.0,NNW,11.5,18.4,N/A,,Clear,340,2013-02-27 17:36:00
12:16 PM,35.6,28.4,75,29.86,10.0,NNW,11.5,16.1,N/A,,Clear,340,2013-02-27 18:16:00
12:35 PM,37.4,28.4,70,29.86,10.0,NNW,9.2,17.3,N/A,,Clear,340,2013-02-27 18:35:00
12:55 PM,37.4,28.4,70,29.87,10.0,North,8.1,17.3,N/A,,Clear,10,2013-02-27 18:55:00
1:16 PM,37.4,28.4,70,29.87,10.0,North,9.2,20.7,N/A,,Clear,10,2013-02-27 19:16:00
1:36 PM,37.4,28.4,70,29.87,10.0,NNE,12.7,18.4,N/A,,Clear,20,2013-02-27 19:36:00
1:56 PM,37.4,28.4,70,29.88,10.0,NNE,10.4,-,N/A,,Clear,30,2013-02-27 19:56:00
2:15 PM,37.4,28.4,70,29.88,10.0,NNE,9.2,17.3,N/A,,Clear,20,2013-02-27 20:15:00
2:36 PM,35.6,28.4,75,29.88,10.0,NE,12.7,18.4,N/A,,Clear,50,2013-02-27 20:36:00
2:56 PM,35.6,28.4,75,29.89,10.0,NE,9.2,18.4,N/A,,Clear,50,2013-02-27 20:56:00
3:15 PM,33.8,28.4,81,29.89,10.0,NE,9.2,-,N/A,,Clear,40,2013-02-27 21:15:00
3:36 PM,33.8,26.6,75,29.90,10.0,NE,8.1,-,N/A,,Clear,50,2013-02-27 21:36:00
3:56 PM,33.8,26.6,75,29.91,10.0,NE,8.1,-,N/A,,Clear,40,2013-02-27 21:56:00
4:15 PM,33.8,26.6,75,29.91,10.0,NE,9.2,-,N/A,,Clear,40,2013-02-27 22:15:00
4:35 PM,33.8,26.6,75,29.91,10.0,NE,5.8,-,N/A,,Clear,40,2013-02-27 22:35:00
4:56 PM,32.0,26.6,80,29.92,10.0,NE,8.1,-,N/A,,Clear,50,2013-02-27 22:56:00
5:16 PM,32.0,26.6,80,29.92,10.0,NNE,8.1,-,N/A,,Clear,30,2013-02-27 23:16:00
5:36 PM,32.0,26.6,80,29.93,10.0,NE,5.8,-,N/A,,Clear,40,2013-02-27 23:36:00
5:56 PM,30.2,26.6,86,29.94,10.0,NE,3.5,-,N/A,,Clear,40,2013-02-27 23:56:00
6:15 PM,30.2,26.6,86,29.95,10.0,NE,6.9,-,N/A,,Clear,40,2013-02-28 00:15:00
6:36 PM,30.2,24.8,80,29.96,10.0,NE,4.6,-,N/A,,Clear,40,2013-02-28 00:36:00
6:55 PM,30.2,24.8,80,29.97,10.0,NE,3.5,-,N/A,,Clear,40,2013-02-28 00:55:00
7:15 PM,30.2,24.8,80,29.98,10.0,NNE,4.6,-,N/A,,Clear,20,2013-02-28 01:15:00
7:36 PM,28.4,24.8,86,29.98,10.0,NNE,4.6,-,N/A,,Clear,20,2013-02-28 01:36:00
8:16 PM,28.4,24.8,86,29.99,10.0,Calm,Calm,-,N/A,,Clear,0,2013-02-28 02:16:00
8:35 PM,28.4,24.8,86,29.99,10.0,North,4.6,-,N/A,,Clear,360,2013-02-28 02:35:00
8:56 PM,28.4,24.8,86,29.99,10.0,North,5.8,-,N/A,,Clear,360,2013-02-28 02:56:00
9:15 PM,28.4,24.8,86,29.99,10.0,North,6.9,-,N/A,,Clear,350,2013-02-28 03:15:00
9:36 PM,28.4,24.8,86,30.00,10.0,North,5.8,-,N/A,,Clear,360,2013-02-28 03:36:00
9:56 PM,28.4,23.0,80,30.00,10.0,North,4.6,-,N/A,,Scattered Clouds,350,2013-02-28 03:56:00
10:16 PM,28.4,23.0,80,30.00,10.0,NNW,5.8,-,N/A,,Overcast,330,2013-02-28 04:16:00
10:35 PM,28.4,23.0,80,30.01,10.0,NNW,4.6,-,N/A,,Overcast,340,2013-02-28 04:35:00
10:56 PM,28.4,23.0,80,30.01,10.0,NNW,5.8,-,N/A,,Overcast,340,2013-02-28 04:56:00
11:15 PM,28.4,23.0,80,30.01,10.0,NNW,5.8,-,N/A,,Overcast,340,2013-02-28 05:15:00
11:35 PM,28.4,24.8,86,30.01,10.0,NNW,4.6,-,N/A,,Overcast,340,2013-02-28 05:35:00
11:56 PM,28.4,24.8,86,30.02,10.0,NNW,4.6,-,N/A,,Overcast,340,2013-02-28 05:56:00